Wind_Speed
8 8 8 7 7 7 9 10 9 8 7 7 7 6 6 6 6 6 6 6 6 6 5 5 6 6 6 6 6 7 7 6 6 5 4 4 3 3 3 3 3 4 4 4 4 4 4 4 5
8 8 8 8 6 7 10 10 10 9 8 8 8 8 8 8 7 8 8 7 7 6 6 6 6 7 7 7 7 7 8 7 7 6 5 5 5 5 5 4 4 4 5 5 5 5 5 5 6
9 8 8 8 8 9 12 11 10 9 9 9 9 9 9 8 9 9 9 9 8 8 8 8 8 7 7 8 8 8 8 8 8 7 7 7 6 6 7 6 6 6 6 6 6 6 6 6 6
9 9 8 8 9 11 12 12 11 10 10 10 10 10 10 9 9 10 10 10 9 9 10 9 9 9 9 9 9 9 9 9 9 9 8 8 8 8 8 8 7 7 7 8 7 7 7 7 7
9 9 9 10 11 12 12 12 11 11 11 12 12 12 11 10 10 10 10 11 11 11 11 11 11 11 11 10 10 10 10 11 11 10 10 10 10 10 9 9 8 8 8 8 9 9 9 9 8
10 10 10 11 13 13 13 12 11 12 13 13 13 13 12 12 12 12 12 12 13 13 13 12 13 12 11 11 12 12 11 11 11 12 11 10 10 10 10 10 9 9 9 9 9 10 10 10 10
10 11 12 12 14 14 13 12 12 13 14 14 14 14 14 15 15 15 14 14 14 14 14 13 13 13 12 12 12 12 12 12 12 12 12 11 11 11 11 11 11 10 10 10 10 10 10 10 10
11 11 12 13 14 14 13 13 13 14 15 15 15 15 16 16 16 17 16 16 15 15 15 13 13 14 14 13 13 13 13 13 13 13 13 13 12 11 11 11 11 11 11 11 11 11 11 10 10
11 11 12 13 13 14 14 14 15 15 15 15 16 16 16 16 16 16 16 16 16 16 15 15 14 15 14 13 13 14 14 14 14 13 13 13 13 12 12 12 12 11 12 12 12 12 12 11 11
11 12 13 13 13 13 14 14 15 15 15 16 16 17 17 17 17 17 16 16 16 16 16 16 16 16 16 15 15 15 15 15 15 14 14 14 14 13 13 12 13 12 12 12 12 13 13 13 13
12 12 13 13 13 14 14 15 15 16 16 17 17 18 19 18 18 17 18 17 18 17 17 17 18 18 17 16 16 16 16 16 16 15 15 15 14 14 14 14 13 14 14 13 13 13 13 14 14
12 13 14 14 14 14 15 16 16 16 17 18 19 19 19 19 18 19 19 18 18 18 18 18 19 19 18 18 18 17 17 17 16 16 16 16 16 16 16 15 15 15 15 15 13 13 13 15 15
12 13 13 14 14 14 15 16 16 17 18 19 20 20 20 20 20 19 19 18 18 19 19 19 19 19 19 18 19 18 18 18 17 17 17 17 16 16 16 16 16 16 15 14 14 14 14 15 16
12 12 12 13 14 14 15 16 17 18 19 20 20 21 21 21 21 20 19 19 18 19 19 20 19 18 18 18 19 19 18 18 18 17 17 17 17 17 17 17 16 17 16 16 16 15 15 16 17
11 11 12 13 13 14 15 15 17 18 19 20 21 21 22 22 22 21 20 20 19 19 20 20 19 18 18 18 18 18 18 18 18 18 18 18 18 18 17 18 18 17 17 17 16 16 17 17 17
10 11 13 14 14 15 16 16 18 19 20 20 21 21 21 22 22 22 21 20 20 19 19 19 18 18 18 18 18 19 19 19 18 18 18 18 18 19 19 18 19 18 18 17 18 18 18 18 18
11 11 13 15 15 15 16 17 18 19 20 20 20 20 21 21 21 21 20 19 19 19 18 17 17 17 18 19 18 19 20 19 18 18 18 18 18 19 19 19 18 19 18 18 19 19 19 18 19
12 12 14 15 16 16 16 17 18 18 18 18 19 20 20 21 20 19 19 18 18 18 17 17 17 17 18 17 17 18 19 18 17 17 18 18 19 20 20 20 20 20 20 20 20 20 20 20 20
13 13 13 15 16 16 16 17 17 17 17 17 17 18 18 19 18 18 18 18 18 18 18 17 18 18 17 17 16 17 17 17 17 18 18 18 19 19 20 21 21 21 21 20 20 20 21 21 20
13 13 13 15 16 16 17 16 17 17 17 16 16 16 16 17 17 17 18 18 17 18 18 18 18 18 17 16 16 16 17 17 17 18 18 19 20 20 20 21 22 21 21 21 20 21 21 21 20
13 14 14 15 16 16 16 16 17 16 16 16 15 15 15 16 15 16 17 17 18 18 18 18 17 17 16 16 16 15 16 17 17 18 19 19 20 21 22 22 21 21 21 21 21 21 22 21 21
14 15 15 15 16 16 16 17 17 16 15 15 15 14 14 14 14 14 14 15 16 16 16 15 15 16 16 16 15 15 15 15 16 18 19 19 19 19 21 22 21 21 21 22 21 21 21 21 21
15 15 15 16 16 16 16 17 18 17 16 15 14 14 14 13 14 13 12 13 14 14 14 15 15 14 15 14 14 14 14 15 15 16 17 18 18 18 20 21 21 21 21 20 20 20 20 20 20
16 16 16 16 16 17 17 18 17 17 16 15 15 13 12 12 12 11 12 13 13 14 15 15 14 14 14 14 13 13 14 14 15 15 15 16 16 17 18 19 20 20 20 20 20 20 20 19 19
16 16 15 15 15 17 17 17 16 17 16 15 14 13 12 11 11 11 11 13 13 13 13 14 14 14 14 14 14 14 15 15 16 16 15 16 16 17 17 18 19 19 19 20 20 20 20 20 19
15 15 15 15 15 16 17 16 15 15 15 14 13 12 12 11 11 11 11 12 12 12 12 14 14 14 14 14 14 15 15 16 16 16 16 17 17 18 18 18 18 18 18 19 20 19 19 19 19
15 15 15 16 16 16 16 16 15 15 14 14 13 13 12 11 11 11 10 11 12 12 11 13 13 14 14 15 15 16 16 16 16 17 17 17 18 18 18 19 18 18 19 19 19 19 20 20 19
15 15 16 15 16 15 15 15 15 15 14 13 12 12 12 11 11 11 10 10 12 12 12 13 13 13 14 15 16 15 16 16 16 17 17 18 18 18 18 18 20 19 19 19 20 20 20 20 20
16 15 16 16 16 16 16 15 15 15 14 13 12 12 12 11 11 11 11 12 12 13 13 13 14 13 14 14 14 15 15 15 16 17 17 18 18 19 19 19 19 19 20 20 20 20 21 20 20
16 16 16 16 17 17 17 16 16 15 14 13 12 12 12 11 11 11 11 11 12 13 14 14 14 14 14 14 14 15 14 14 15 15 16 17 18 19 19 19 19 20 21 21 20 19 19 19 19
Wind_Direction
250 249 249 249 244 239 243 254 257 261 263 262 259 262 272 277 280 281 284 285 284 273 264 269 268 264 264 264 261 259 260 260 263 260 258 258 259 263 271 275 283 290 295 298 299 301 301 299 300
252 252 250 253 247 246 251 256 257 261 266 268 267 269 270 280 285 285 285 285 282 270 268 271 267 265 264 263 263 258 258 261 263 260 263 268 267 266 269 270 273 277 281 286 290 291 291 291 290
252 251 250 251 251 250 255 254 257 263 267 268 271 272 274 283 288 285 285 286 282 275 275 273 271 264 262 264 262 260 261 260 260 260 264 271 270 271 272 270 269 272 275 275 279 283 285 288 287
253 250 250 251 257 256 255 255 255 263 270 270 273 278 280 287 289 287 283 283 283 282 279 274 273 269 264 262 260 261 264 262 259 261 263 267 268 270 271 268 267 268 272 272 273 277 282 284 283
252 254 253 256 259 260 258 258 257 261 270 271 275 281 282 286 287 286 283 280 283 284 281 274 275 272 268 263 261 261 263 263 260 261 263 265 266 267 267 267 265 267 269 270 272 274 277 275 274
257 257 254 257 261 262 261 262 264 269 272 273 277 280 280 283 285 284 282 282 283 283 283 279 276 272 272 269 265 264 264 262 260 261 262 263 264 267 267 268 268 270 271 271 271 273 276 276 274
260 260 259 262 264 263 264 268 269 269 268 273 277 278 279 284 285 286 283 282 281 281 283 282 277 269 269 270 269 267 263 261 258 259 260 263 261 264 268 270 270 270 272 272 272 272 271 273 276
264 263 263 265 265 266 266 269 271 269 270 274 277 281 282 283 284 284 281 281 279 278 280 280 277 272 269 268 267 266 263 261 259 257 260 262 261 261 265 268 270 269 269 271 274 272 270 272 274
263 262 262 262 261 262 264 267 269 271 271 274 278 280 280 281 284 282 279 278 278 277 277 276 275 272 268 266 265 262 260 259 257 255 259 259 260 260 264 267 270 271 270 269 271 273 271 270 271
261 262 260 259 257 260 264 268 270 271 272 275 276 278 278 279 280 281 280 277 275 273 274 273 270 269 265 262 264 261 259 257 253 253 257 257 258 261 267 269 270 271 273 272 271 270 275 275 272
261 261 264 263 260 262 265 268 271 272 273 274 275 277 279 278 278 279 279 276 273 271 270 271 269 267 261 261 262 261 263 257 253 252 252 257 259 263 268 269 272 272 272 275 274 272 274 276 275
260 264 268 267 265 266 266 269 270 271 271 273 276 277 278 277 278 278 276 274 271 269 270 268 267 264 262 260 260 262 262 256 252 250 253 257 260 263 267 270 271 272 272 272 275 273 276 276 275
261 265 269 270 268 268 269 269 270 272 275 275 275 276 276 275 275 275 273 272 271 270 269 267 265 261 259 258 257 259 258 256 255 252 252 257 262 261 264 270 271 271 272 272 278 279 280 280 278
267 267 271 271 269 270 272 271 272 274 276 275 274 274 274 275 275 275 275 274 273 270 268 267 265 260 259 259 256 257 257 255 254 252 254 259 261 261 263 266 270 269 271 273 275 278 281 281 281
268 268 273 275 276 276 276 277 278 278 278 278 277 276 274 275 276 274 274 273 272 269 267 266 265 260 258 259 257 256 255 253 252 252 255 259 262 260 263 266 267 267 270 271 272 276 281 282 281
271 276 277 276 277 278 278 279 283 283 281 280 279 279 276 273 275 276 275 273 271 268 265 264 260 258 257 257 255 252 251 249 250 252 255 259 262 262 262 265 267 268 269 270 273 276 281 280 282
275 274 274 277 278 280 281 281 283 285 284 283 281 281 281 276 276 275 273 273 271 268 263 261 260 259 256 255 253 251 249 247 249 253 257 259 263 262 261 264 268 269 270 272 274 276 278 280 282
267 268 272 276 280 282 284 286 288 288 286 284 282 281 281 280 279 275 271 272 271 269 265 262 263 260 255 253 252 250 247 245 248 252 257 260 263 261 262 265 268 271 272 272 272 274 277 280 281
268 270 275 278 281 284 287 286 291 294 292 289 285 284 282 281 279 275 270 269 268 269 267 263 260 259 254 251 252 248 244 243 248 253 257 260 262 262 264 267 269 270 270 271 273 276 277 278 279
271 273 277 282 283 286 290 292 293 295 295 293 290 286 285 284 279 274 270 269 269 268 266 261 258 254 254 254 254 250 244 244 250 254 256 260 262 263 265 268 269 268 268 270 274 276 277 278 280
273 274 279 283 285 289 293 297 297 297 296 295 293 288 285 285 281 277 273 269 269 268 264 261 256 253 254 253 253 253 250 251 255 256 258 261 263 262 264 269 267 265 268 271 273 275 277 276 278
271 274 278 282 287 292 297 297 296 302 301 298 295 292 287 284 280 277 271 267 267 267 263 261 257 257 255 254 254 254 256 256 259 259 260 262 265 263 263 267 268 269 272 274 273 276 276 275 275
271 273 276 282 288 290 295 299 300 300 300 301 300 298 291 286 283 275 268 265 264 267 266 263 259 257 257 254 253 256 256 256 259 261 262 263 264 266 264 267 268 269 272 273 272 274 277 276 275
271 274 277 282 289 290 293 296 299 297 297 300 300 300 293 290 287 277 267 263 265 267 266 263 260 260 261 260 259 262 263 263 264 264 264 264 266 269 269 270 271 272 273 272 272 274 275 277 279
273 276 281 284 286 289 293 296 297 295 294 299 302 298 295 292 285 276 266 263 264 267 267 264 263 264 262 261 260 262 264 265 268 268 267 268 270 272 272 272 273 273 273 272 272 274 276 276 278
274 274 279 281 283 287 292 294 295 294 295 298 299 297 296 294 288 281 274 266 266 267 265 265 267 268 265 264 263 264 266 268 269 270 269 270 272 272 274 272 273 275 274 274 273 274 276 276 279
275 273 275 280 286 285 286 289 288 293 294 296 298 298 296 293 288 287 280 266 266 267 267 269 270 269 269 266 266 268 266 268 270 270 270 271 271 271 273 270 270 273 275 276 274 275 276 276 276
272 273 273 278 283 283 285 289 289 290 293 294 294 296 298 295 290 286 279 271 267 267 269 273 274 272 271 268 267 271 269 269 269 270 270 271 271 271 272 272 274 276 277 278 276 276 277 277 277
274 274 273 274 274 276 280 284 283 286 288 289 288 290 294 295 294 288 281 273 267 268 272 274 273 273 271 270 271 274 274 271 271 271 270 271 272 273 273 274 276 275 276 278 279 277 277 276 275
274 273 273 274 277 276 277 279 279 283 286 286 285 285 288 293 292 292 286 276 271 270 271 272 273 273 272 270 273 276 275 273 273 271 271 272 273 275 274 274 275 276 275 276 277 275 277 278 275
Height
5891 5892 5893 5894 5896 5896 5896 5896 5895 5896 5895 5895 5895 5895 5895 5896 5896 5898 5896 5894 5894 5893 5893 5893 5893 5893 5893 5893 5892 5892 5892 5892 5892 5891 5891 5891 5890 5890 5890 5890 5890 5889 5889 5889 5889 5888 5888 5887 5887
5890 5890 5892 5893 5894 5896 5895 5894 5893 5894 5894 5894 5894 5894 5893 5893 5893 5893 5893 5892 5892 5891 5891 5891 5891 5891 5891 5891 5891 5891 5890 5890 5890 5890 5890 5890 5889 5889 5889 5888 5888 5888 5888 5887 5887 5887 5886 5886 5886
5888 5889 5891 5891 5892 5893 5892 5892 5892 5891 5892 5892 5892 5892 5892 5892 5891 5891 5891 5890 5890 5890 5889 5889 5889 5889 5889 5889 5889 5888 5888 5888 5888 5888 5888 5888 5888 5887 5887 5887 5887 5886 5886 5886 5886 5885 5885 5884 5884
5886 5888 5889 5890 5890 5889 5889 5889 5889 5890 5890 5890 5890 5890 5890 5890 5889 5889 5888 5888 5888 5887 5887 5887 5887 5887 5886 5886 5886 5886 5886 5886 5886 5886 5885 5885 5885 5885 5885 5885 5885 5884 5884 5884 5883 5883 5883 5883 5882
5884 5886 5887 5887 5887 5886 5887 5887 5887 5887 5887 5888 5888 5888 5887 5887 5887 5886 5886 5886 5886 5885 5885 5884 5884 5884 5884 5884 5884 5883 5883 5883 5883 5883 5883 5883 5883 5883 5883 5883 5882 5882 5882 5882 5881 5881 5881 5881 5880
5882 5884 5885 5885 5884 5884 5884 5884 5885 5885 5885 5885 5885 5886 5885 5885 5884 5884 5883 5883 5883 5883 5882 5881 5881 5881 5881 5881 5881 5881 5881 5880 5880 5880 5880 5880 5880 5880 5880 5880 5880 5880 5880 5879 5879 5879 5878 5878 5878
5881 5881 5882 5882 5881 5881 5881 5881 5882 5882 5882 5882 5882 5883 5882 5882 5881 5881 5881 5880 5880 5879 5879 5878 5878 5878 5878 5878 5878 5878 5878 5878 5878 5877 5877 5877 5877 5877 5878 5877 5877 5877 5877 5877 5876 5876 5875 5875 5875
5877 5879 5879 5879 5878 5878 5878 5878 5879 5879 5879 5879 5879 5879 5879 5879 5879 5878 5877 5877 5877 5876 5875 5875 5875 5875 5874 5874 5875 5875 5875 5875 5875 5874 5874 5874 5874 5874 5874 5874 5874 5874 5874 5874 5873 5873 5873 5873 5873
5874 5877 5876 5876 5876 5875 5875 5875 5875 5876 5876 5876 5876 5876 5876 5876 5875 5875 5874 5874 5873 5873 5872 5872 5871 5871 5871 5871 5871 5871 5871 5871 5871 5871 5871 5871 5872 5871 5871 5871 5871 5871 5871 5870 5870 5870 5870 5869 5869
5872 5874 5874 5873 5873 5872 5872 5872 5872 5873 5873 5873 5872 5872 5872 5872 5872 5871 5871 5870 5870 5869 5868 5868 5868 5868 5867 5867 5867 5868 5867 5867 5868 5868 5868 5868 5868 5868 5868 5868 5868 5868 5868 5867 5867 5867 5867 5866 5866
5870 5870 5870 5870 5870 5869 5869 5869 5869 5869 5870 5869 5869 5868 5868 5868 5868 5867 5867 5866 5866 5865 5864 5864 5864 5863 5863 5863 5863 5864 5864 5864 5864 5864 5865 5865 5865 5865 5865 5865 5865 5865 5865 5865 5864 5864 5863 5863 5863
5867 5867 5867 5867 5867 5867 5866 5866 5866 5866 5866 5865 5865 5864 5864 5864 5863 5863 5862 5862 5861 5861 5860 5860 5859 5859 5859 5859 5859 5860 5860 5860 5860 5861 5861 5861 5862 5862 5862 5862 5861 5861 5862 5861 5861 5860 5860 5860 5860
5864 5864 5864 5864 5864 5863 5863 5863 5863 5862 5862 5861 5861 5860 5860 5859 5859 5859 5858 5857 5857 5856 5856 5855 5854 5854 5855 5855 5855 5856 5856 5856 5857 5857 5858 5858 5858 5858 5858 5858 5858 5858 5858 5858 5858 5858 5857 5857 5856
5861 5861 5861 5861 5861 5860 5860 5860 5859 5859 5858 5857 5856 5856 5855 5854 5854 5853 5853 5852 5852 5851 5851 5850 5850 5850 5850 5851 5851 5851 5852 5852 5853 5853 5854 5854 5854 5854 5854 5854 5854 5855 5855 5855 5854 5854 5854 5853 5853
5859 5859 5859 5858 5858 5857 5857 5857 5855 5854 5853 5852 5851 5851 5850 5849 5849 5848 5848 5848 5847 5846 5846 5845 5845 5845 5845 5846 5846 5847 5847 5848 5848 5849 5850 5850 5849 5849 5850 5850 5851 5851 5851 5851 5851 5851 5850 5849 5849
5856 5856 5857 5856 5855 5854 5855 5854 5852 5850 5849 5848 5847 5845 5845 5844 5843 5843 5843 5842 5841 5841 5841 5840 5840 5840 5841 5841 5841 5842 5842 5843 5844 5845 5845 5846 5845 5845 5845 5846 5847 5847 5847 5847 5847 5846 5846 5845 5844
5854 5854 5854 5854 5852 5851 5851 5850 5848 5846 5845 5843 5842 5840 5839 5838 5838 5837 5837 5836 5836 5836 5836 5835 5836 5836 5836 5836 5837 5837 5838 5839 5840 5841 5841 5841 5841 5841 5841 5842 5842 5842 5842 5842 5842 5842 5841 5840 5840
5852 5852 5851 5851 5849 5848 5846 5845 5844 5842 5840 5838 5836 5835 5834 5833 5832 5832 5832 5832 5831 5831 5831 5831 5831 5831 5832 5832 5832 5833 5834 5835 5835 5836 5837 5837 5837 5837 5838 5838 5838 5838 5838 5838 5838 5837 5837 5836 5835
5848 5848 5848 5847 5845 5844 5843 5841 5839 5837 5836 5834 5832 5831 5829 5828 5827 5827 5827 5827 5827 5827 5827 5826 5827 5827 5827 5828 5828 5829 5829 5830 5831 5832 5832 5833 5833 5833 5833 5834 5834 5833 5833 5833 5833 5832 5832 5830 5829
5845 5845 5845 5844 5842 5841 5839 5838 5836 5834 5832 5830 5828 5826 5825 5824 5823 5822 5822 5822 5822 5823 5822 5822 5822 5823 5823 5824 5824 5825 5825 5826 5827 5827 5828 5828 5829 5829 5829 5829 5829 5829 5829 5828 5828 5827 5826 5825 5824
5842 5842 5841 5840 5839 5837 5836 5835 5833 5830 5828 5826 5824 5823 5821 5820 5819 5818 5818 5818 5818 5818 5819 5819 5818 5819 5819 5820 5820 5821 5822 5822 5823 5823 5823 5824 5824 5824 5824 5824 5824 5824 5824 5823 5823 5822 5821 5820 5819
5838 5838 5837 5836 5836 5835 5834 5832 5830 5827 5825 5823 5821 5819 5818 5817 5816 5815 5814 5815 5815 5815 5815 5815 5815 5816 5816 5816 5817 5817 5818 5818 5819 5819 5819 5819 5819 5819 5819 5819 5819 5819 5818 5818 5817 5817 5815 5814 5813
5835 5834 5834 5833 5832 5831 5830 5829 5828 5824 5822 5820 5818 5816 5814 5814 5812 5812 5812 5812 5812 5812 5812 5812 5812 5812 5813 5813 5813 5814 5814 5815 5815 5815 5815 5814 5815 5815 5814 5814 5814 5813 5813 5813 5812 5811 5810 5809 5808
5830 5831 5830 5829 5829 5828 5827 5826 5824 5821 5819 5817 5815 5813 5811 5810 5809 5809 5809 5809 5809 5809 5809 5809 5809 5809 5810 5810 5810 5810 5810 5811 5811 5811 5810 5810 5810 5810 5810 5810 5809 5808 5808 5807 5807 5806 5805 5804 5803
5827 5827 5827 5827 5826 5825 5823 5821 5820 5818 5815 5814 5812 5810 5809 5808 5806 5806 5806 5806 5806 5806 5806 5806 5806 5806 5806 5807 5807 5807 5807 5807 5807 5807 5807 5807 5806 5806 5806 5805 5804 5804 5803 5802 5801 5801 5800 5799 5798
5822 5823 5824 5824 5823 5822 5819 5817 5817 5814 5812 5810 5809 5807 5806 5805 5804 5803 5802 5803 5803 5804 5804 5803 5803 5803 5803 5803 5804 5804 5803 5803 5803 5803 5803 5803 5802 5801 5801 5800 5799 5799 5798 5797 5796 5796 5795 5794 5793
5818 5818 5819 5818 5817 5817 5816 5814 5812 5810 5809 5807 5806 5804 5803 5802 5801 5800 5800 5800 5801 5801 5801 5801 5800 5800 5800 5800 5800 5800 5799 5799 5798 5798 5798 5798 5797 5797 5796 5796 5795 5794 5793 5792 5791 5790 5789 5789 5788
5814 5813 5813 5813 5812 5812 5812 5810 5809 5807 5805 5804 5803 5802 5801 5799 5798 5798 5797 5797 5797 5797 5798 5797 5797 5797 5796 5796 5796 5795 5795 5794 5793 5793 5793 5793 5793 5792 5792 5791 5790 5789 5788 5787 5786 5785 5784 5783 5783
5809 5809 5808 5808 5808 5808 5808 5809 5805 5803 5802 5801 5800 5799 5798 5797 5796 5795 5794 5794 5794 5794 5794 5794 5794 5794 5793 5793 5792 5791 5791 5790 5789 5789 5789 5788 5788 5787 5787 5786 5785 5784 5783 5782 5781 5780 5779 5778 5778
5803 5803 5803 5803 5802 5802 5802 5805 5800 5799 5798 5798 5797 5796 5795 5794 5793 5792 5791 5791 5791 5791 5790 5790 5790 5790 5789 5789 5788 5788 5787 5786 5785 5784 5784 5783 5783 5782 5781 5780 5779 5778 5778 5777 5776 5775 5774 5773 5772